Regional Weather Roundup
Issued by NWS Newport/Morehead, NC

Home | Current Version | Previous Version | Text Only | Print | Product List | Glossary On
Versions: 1 2 3 4 5 6 7 8 9 10 11 12 13 14 15 16 17 18 19 20 21 22 23 24 25 26 27 28 29 30 31 32 33 34 35 36 37 38 39 40 41 42 43 44 45 46 47 48 49 50
000
ASUS42 KMHX 242325
RWRMHX
WEATHER ROUNDUP FOR EASTERN NORTH CAROLINA
NATIONAL WEATHER SERVICE NEWPORT/MOREHEAD CITY NC
700 PM EDT THU MAY 24 2018

NOTE: "FAIR" INDICATES FEW OR NO CLOUDS BELOW 12,000 FEET
WITH NO SIGNIFICANT WEATHER AND/OR OBSTRUCTIONS TO VISIBILITY

NCZ015>017-031-032-045>047-102-103-250000-
NORTH COAST

CITY           SKY/WX    TMP DP  RH WIND       PRES   REMARKS
EDENTON        FAIR      76  62  60 E6        30.15R
ELIZABETH CITY FAIR      78  59  51 E6        30.13F
KITTY HAWK     FAIR      71  64  77 CALM      30.14R
MANTEO         FAIR      73  62  69 E3        30.15R

$$

NCZ045>047-081-094-103-104-250000-
CENTRAL COAST

CITY           SKY/WX    TMP DP  RH WIND       PRES   REMARKS
FRISCO         FAIR      75  58  55 E7        30.14R

$$

NCZ095-097-098-100-101-250000-
SOUTHERN COAST

CITY           SKY/WX    TMP DP  RH WIND       PRES   REMARKS
BEAUFORT       FAIR      77  62  59 E7        30.13R
CEDAR ISLAND   NOT AVBL
JACKSONVILLE   FAIR      78  63  59 SE9       30.12R
PINEY ISLAND   NOT AVBL
WILMINGTON     CLOUDY    75  66  73 E10       30.12S


$$

NCZ011>013-027>030-043-044-078>080-089-090>093-098-250000-
COASTAL PLAIN

CITY           SKY/WX    TMP DP  RH WIND       PRES   REMARKS
AHOSKIE        FAIR      77  62  60 SE7       30.14R
CLINTON        FAIR      77  72  82 SW3       30.13R
ELIZABETHTOWN  FAIR      73  69  87 CALM      30.13S
GOLDSBORO      FAIR      82  62  51 E8        30.11R
GREENVILLE     FAIR      81  59  47 E8        30.14R
HAVELOCK       MOSUNNY   80  63  55 E9        30.13S
KENANSVILLE    FAIR      77  68  73 S5        30.13S
KINSTON        SUNNY     82  59  44 SE7       30.13R
NEW BERN       FAIR      77  58  51 E7        30.14R
RICHLANDS      FAIR      79  66  64 SE8       30.13R
ROCKY MOUNT    FAIR      82  59  45 VRB5      30.12R
WASHINGTON     FAIR      78  61  54 CALM      30.14R
WHITEVILLE     FAIR      74  71  89 S3        30.12S

$$

AMZ130-135-150-152-154-156-158-170-250-252-270-ANZ085-086-088-633-658-670-250000-
MARINE OBSERVATIONS

STATION/POSITION TIME  TEMP    WIND        PRES    WAVE   SWELL
                       AIR SEA DIR/SP/G            HT/PER HT/PER
                 (UTC) (F)     (DEG/KT/KT) (MB)    (FT/S) (FT/S)
CHESAPEAKE LIGHT NOT AVBL
64 E VA BEACH    2250   66 68   60/  8/  8 1021.0    2/ 8   2/ 8
DUCK             2300   72 71   60/  5/  5 1020.4
2 E DUCK         2300      72                N/A     1/ 8
OREGON INLET     2300   71 79   50/  4/  5 1020.7
13E OREGON INLT  2248      70                N/A     2/ 8   2/ 8
HATTERAS CG      2300   76 77   70/  6/  9 1020.2
DIAMOND BUOY     2310   75 78   20/  8/ 10 1020.5
CAPE LOOKOUT     2300           50/ 11/ 12 1020.5
BEAUFORT LAB     2300   77 77   90/  5/ 10 1020.5
30 SE NEW RVR IN 2308   75      80/ 10/ 14 1020.1
30 SE NEW RVR IN 2300      76                N/A     3/ 4
27 SE WRIGHTSVLE 2308   75 75  110/ 12/ 19 1019.8
5 SE WRIGHTSVLE  2308   74 74  140/ 10/ 14 1019.3
225 S CAPE HAT   2310      79  100/  4/  4 1018.7
41 SE CHARLESTON 2300      77  130/  6/  8 1018.7

$$



USA.gov is the U.S. government's official web portal to all federal, state and local government web resources and services.